Regional Weather Roundup
Issued by NWS

Home | Current Version | Previous Version | Text Only | Print | Product List | Glossary On
Versions: 1 2 3 4 5 6 7 8 9 10 11 12 13 14 15 16 17 18 19 20 21 22 23 24 25 26 27 28 29 30 31 32 33 34 35 36 37 38 39 40 41 42 43 44 45 46 47 48 49 50
000
ASUS44 KLIX 051113
RWRLA
LOUISIANA WEATHER ROUNDUP
NATIONAL WEATHER SERVICE NEW ORLEANS LA
500 AM CST MON DEC 05 2016

NOTE: "FAIR" INDICATES FEW OR NO CLOUDS BELOW 12,000 FEET WITH NO
      SIGNIFICANT WEATHER AND/OR OBSTRUCTIONS TO VISIBILITY.
      SKY/WX - SKY CONDITION AND SIGNIFICANT WEATHER.
      TMP - AIR TEMPERATURE.    DP   - DEWPOINT TEMPERATURE.
      RH  - RELATIVE HUMIDITY.  PRES - PRESSURE.
      HX  - HEAT INDEX.         WCI  - WIND CHILL INDEX.

*  THESE STATIONS ARE NOT NWS OR FAA STATIONS AND ARE NOT UNDER
   NWS QUALITY CONTROL.

LAZ040-048-061>063-065-066-069-051200-
SOUTHEAST LOUISIANA

CITY           SKY/WX    TMP DP  RH WIND       PRES   REMARKS
N.O. AUDUBON   NOT AVBL
N.O. INTL ARPT CLOUDY    58  58 100 NE7       29.89S FOG
N.O. LAKEFRONT CLOUDY    59  59 100 NE14      29.89F FOG
N.O. DOWNTOWN*   N/A     59  59 100 VRB5      29.89F FOG
RESERVE*       CLOUDY    59  57  94 NE5       29.88F FOG
SLIDELL        CLOUDY    58  57  97 NE8       29.88F FOG
BATON ROUGE    CLOUDY    53  53 100 NE10      29.89F FOG
BOOTHVILLE     PTCLDY    65  65 100 E3        29.86R
BELLE CHASSE   CLOUDY    60  60 100 N5        29.88S
BOGALUSA*      CLOUDY    57  55  91 NE5       29.92F
GALLIANO*      CLOUDY    63  60  91 N8        29.87R FOG
NEW ROADS*     CLOUDY    51  50  97 NE5       29.89F
GONZALES*      CLOUDY    56  56 100 N3        29.88S FOG
HAMMOND*       CLOUDY    55  54  94 NE5       29.90F FOG
HOUMA*         FOG       60  60  99 NE9       29.87S VSB 3/4
PORT FOURCHON* CLOUDY    70  68  94 NE7       29.85R

$$

LAZ041-044-053-054-051200-
SOUTHWEST LOUISIANA

CITY           SKY/WX    TMP DP  RH WIND       PRES   REMARKS
LAKE CHARLES   LGT RAIN  50  49  96 NE13      29.86F
LAFAYETTE      RAIN      53  52  96 NE7       29.89R FOG
PATTERSON      CLOUDY   N/A N/A N/A NE10      29.87F FOG
SALT POINT     NOT AVBL
NEW IBERIA     LGT RAIN  54  51  90 NE8       29.89S
CHENAULT AIRPK NOT AVBL

$$

LAZ027-028-051200-
CENTRAL LOUISIANA

CITY           SKY/WX    TMP DP  RH WIND       PRES   REMARKS
FORT POLK      LGT RAIN  47  46  98 VRB5      29.89F FOG
ALEXANDRIA INT HVY RAIN  47  46  97 NE7       29.90R FOG
ALEXANDRIA     LGT RAIN  47  47 100 NW7       29.93R FOG

$$

LAZ001-002-051200-
NORTHWEST LOUISIANA

CITY           SKY/WX    TMP DP  RH WIND       PRES   REMARKS
SHREVEPORT     CLOUDY    47  45  93 E10       29.90F
BARKSDALE AFB  CLOUDY    46  46 100 E9        29.91F
DTN SHREVEPORT CLOUDY    46  43  89 E9        29.91F

$$

LAZ014-016-051200-
NORTHEAST LOUISIANA

CITY           SKY/WX    TMP DP  RH WIND       PRES   REMARKS
MONROE         CLOUDY    46  43  89 NE8       29.97F
TALLULAH       LGT RAIN  47  46  97 NE8       29.95F

$$




USA.gov is the U.S. government's official web portal to all federal, state and local government web resources and services.